RFF808 ULAA-UUWW

Flight info

Callsign RFF808
Flight time 1h 50m
Altitude 36000
Route ABELU3A ABELU T825 UREPI P65 ROMTA ROMTA3A
Aircraft T134/M-SDFGHRUWY/A

Departure

Time 2026-04-16 14:05
Airport Talagi Airport (ULAA)

Arrival

Time 2026-04-16 15:56
Airport Vnukovo International Airport (UUWW)
Time Latitude Longitude Altitude Speed Heading
2026-04-16 13:26 64.59743 40.71148 72 ft 0 kts 186°
2026-04-16 13:26 64.60118 40.69180 72 ft 0 kts 97°
2026-04-16 13:27 64.59743 40.71148 72 ft 0 kts 186°
2026-04-16 13:55 64.59742 40.71148 72 ft 0 kts 186°
2026-04-16 13:57 64.59741 40.71148 72 ft 0 kts 186°
2026-04-16 13:57 64.59736 40.71146 72 ft 2 kts 186°
2026-04-16 13:57 64.59717 40.71148 72 ft 3 kts 164°
2026-04-16 13:58 64.59726 40.71257 72 ft 6 kts 26°
2026-04-16 13:58 64.59779 40.71277 72 ft 10 kts
2026-04-16 13:58 64.59859 40.71298 72 ft 13 kts
2026-04-16 13:58 64.59919 40.71313 72 ft 0 kts
2026-04-16 14:00 64.59933 40.71317 72 ft 5 kts
2026-04-16 14:00 64.59989 40.71343 72 ft 10 kts 31°
2026-04-16 14:01 64.60003 40.71501 72 ft 13 kts 98°
2026-04-16 14:01 64.59991 40.71752 72 ft 18 kts 96°
2026-04-16 14:01 64.59976 40.72049 72 ft 19 kts 96°
2026-04-16 14:01 64.59962 40.72362 72 ft 20 kts 96°
2026-04-16 14:02 64.59946 40.72683 72 ft 20 kts 95°
2026-04-16 14:02 64.59931 40.73005 72 ft 20 kts 96°
2026-04-16 14:02 64.59914 40.73330 72 ft 20 kts 96°
2026-04-16 14:02 64.59897 40.73649 72 ft 14 kts 114°
2026-04-16 14:03 64.59892 40.73759 72 ft 4 kts 337°
2026-04-16 14:03 64.59897 40.73722 72 ft 0 kts 274°
2026-04-16 14:04 64.59897 40.73721 72 ft 0 kts 274°
2026-04-16 14:04 64.59897 40.73717 72 ft 3 kts 274°
2026-04-16 14:04 64.59927 40.73130 72 ft 75 kts 276°
2026-04-16 14:05 64.60014 40.71340 73 ft 145 kts 277°
2026-04-16 14:05 64.60149 40.68602 207 ft 190 kts 277°
2026-04-16 14:05 64.60286 40.65276 620 ft 223 kts 275°
2026-04-16 14:05 64.60416 40.61406 1059 ft 255 kts 274°
2026-04-16 14:06 64.60353 40.57047 1564 ft 286 kts 259°
2026-04-16 14:06 64.59451 40.52686 2087 ft 316 kts 233°
2026-04-16 14:06 64.57791 40.49752 2711 ft 283 kts 206°
2026-04-16 14:06 64.55950 40.49092 2937 ft 261 kts 179°
2026-04-16 14:07 64.54206 40.49428 3060 ft 241 kts 176°
2026-04-16 14:07 64.52601 40.49899 3179 ft 224 kts 174°
2026-04-16 14:07 64.51095 40.50384 3333 ft 218 kts 175°
2026-04-16 14:07 64.49587 40.50716 4205 ft 213 kts 180°
2026-04-16 14:08 64.48106 40.50787 5068 ft 218 kts 183°
2026-04-16 14:08 64.46483 40.50692 5504 ft 250 kts 187°
2026-04-16 14:08 64.44660 40.50294 6081 ft 272 kts 191°
2026-04-16 14:08 64.42763 40.49695 6948 ft 281 kts 191°
2026-04-16 14:09 64.40687 40.49132 7053 ft 322 kts 190°
2026-04-16 14:09 64.38370 40.48587 7596 ft 346 kts 188°
2026-04-16 14:09 64.35909 40.48121 8292 ft 356 kts 187°
2026-04-16 14:09 64.34283 40.47999 8769 ft 348 kts 185°
2026-04-16 14:10 64.31901 40.48013 9412 ft 336 kts 184°
2026-04-16 14:10 64.29624 40.48062 9908 ft 319 kts 187°
2026-04-16 14:10 64.27456 40.47576 10217 ft 310 kts 194°
2026-04-16 14:10 64.25342 40.46665 10522 ft 309 kts 197°
2026-04-16 14:11 64.23236 40.45594 10854 ft 310 kts 198°
2026-04-16 14:11 64.21138 40.44477 11169 ft 310 kts 201°
2026-04-16 14:11 64.19233 40.42286 11155 ft 305 kts 220°
2026-04-16 14:11 64.17851 40.38697 11104 ft 299 kts 240°
2026-04-16 14:12 64.16754 40.34711 11371 ft 295 kts 233°
2026-04-16 14:12 64.15178 40.31633 11485 ft 304 kts 214°
2026-04-16 14:12 64.13198 40.29832 11659 ft 308 kts 201°
2026-04-16 14:12 64.11159 40.28372 11914 ft 307 kts 204°
2026-04-16 14:13 64.09107 40.26960 12246 ft 309 kts 200°
2026-04-16 14:13 64.07002 40.25812 12577 ft 312 kts 198°
2026-04-16 14:13 64.04870 40.24780 12911 ft 314 kts 197°
2026-04-16 14:13 64.02724 40.23774 13247 ft 316 kts 197°
2026-04-16 14:14 64.00570 40.22771 13586 ft 317 kts 197°
2026-04-16 14:14 63.98406 40.21766 13928 ft 318 kts 197°
2026-04-16 14:14 63.96233 40.20760 14322 ft 318 kts 197°
2026-04-16 14:14 63.94056 40.19756 14792 ft 320 kts 197°
2026-04-16 14:15 63.91866 40.18746 15267 ft 322 kts 197°
2026-04-16 14:15 63.89662 40.17729 15745 ft 324 kts 197°
2026-04-16 14:15 63.87442 40.16705 16225 ft 327 kts 197°
2026-04-16 14:15 63.85207 40.15674 16708 ft 329 kts 197°
2026-04-16 14:16 63.82954 40.14640 17194 ft 332 kts 197°
2026-04-16 14:16 63.80682 40.13602 17679 ft 334 kts 197°
2026-04-16 14:16 63.78395 40.12561 18166 ft 337 kts 197°
2026-04-16 14:16 63.76086 40.11530 18660 ft 340 kts 197°
2026-04-16 14:17 63.73751 40.10572 19154 ft 343 kts 196°
2026-04-16 14:17 63.71388 40.09695 19649 ft 346 kts 195°
2026-04-16 14:17 63.68990 40.08898 20148 ft 350 kts 194°
2026-04-16 14:17 63.66567 40.08184 20652 ft 353 kts 193°
2026-04-16 14:18 63.64112 40.07551 21166 ft 356 kts 192°
2026-04-16 14:18 63.61632 40.06966 21671 ft 359 kts 194°
2026-04-16 14:18 63.59230 40.05598 22018 ft 356 kts 205°
2026-04-16 14:18 63.56963 40.03440 22509 ft 354 kts 208°
2026-04-16 14:19 63.54642 40.01502 23068 ft 358 kts 202°
2026-04-16 14:19 63.52254 40.00022 23608 ft 363 kts 199°
2026-04-16 14:19 63.49810 39.98298 24067 ft 364 kts 204°
2026-04-16 14:19 63.47446 39.96455 24629 ft 366 kts 204°
2026-04-16 14:20 63.45019 39.94652 25199 ft 370 kts 202°
2026-04-16 14:20 63.42553 39.92912 25772 ft 374 kts 201°
2026-04-16 14:20 63.40048 39.91235 26358 ft 378 kts 200°
2026-04-16 14:20 63.37507 39.89626 26956 ft 382 kts 199°
2026-04-16 14:21 63.34931 39.88083 27564 ft 385 kts 199°
2026-04-16 14:21 63.32324 39.86612 28177 ft 387 kts 198°
2026-04-16 14:21 63.29696 39.85219 28780 ft 389 kts 197°
2026-04-16 14:21 63.27046 39.83900 29368 ft 391 kts 198°
2026-04-16 14:22 63.24386 39.82606 29936 ft 392 kts 198°
2026-04-16 14:22 63.21719 39.81308 30487 ft 393 kts 198°
2026-04-16 14:22 63.19046 39.80007 31019 ft 394 kts 198°
2026-04-16 14:22 63.16369 39.78705 31533 ft 394 kts 198°
2026-04-16 14:23 63.13686 39.77401 32027 ft 395 kts 198°
2026-04-16 14:23 63.10986 39.76084 32140 ft 405 kts 198°
2026-04-16 14:23 63.05382 39.73312 32164 ft 420 kts 198°
2026-04-16 14:24 62.99619 39.70433 32157 ft 428 kts 198°
2026-04-16 14:24 62.93805 39.67419 32156 ft 429 kts 200°
2026-04-16 14:25 62.88146 39.63344 32157 ft 428 kts 204°
2026-04-16 14:25 62.82585 39.58706 32159 ft 428 kts 205°
2026-04-16 14:26 62.77045 39.53942 32160 ft 428 kts 206°
2026-04-16 14:26 62.71504 39.49140 32163 ft 428 kts 206°
2026-04-16 14:27 62.65966 39.44320 32165 ft 429 kts 206°
2026-04-16 14:27 62.60428 39.39485 32167 ft 429 kts 206°
2026-04-16 14:28 62.54885 39.34624 32169 ft 430 kts 206°
2026-04-16 14:28 62.49379 39.29776 32171 ft 430 kts 206°
2026-04-16 14:29 62.43837 39.24833 32128 ft 432 kts 205°
2026-04-16 14:29 62.38295 39.19796 32157 ft 432 kts 215°
2026-04-16 14:30 62.32703 39.14911 32179 ft 435 kts 216°
2026-04-16 14:30 62.27188 39.09520 32173 ft 436 kts 217°
2026-04-16 14:31 62.21717 39.03859 32180 ft 437 kts 219°
2026-04-16 14:31 62.16389 38.97667 32178 ft 435 kts 221°
2026-04-16 14:32 62.11253 38.90889 32176 ft 433 kts 225°
2026-04-16 14:32 62.06231 38.83754 32177 ft 434 kts 226°
2026-04-16 14:33 62.01217 38.76496 32183 ft 437 kts 214°
2026-04-16 14:33 61.95773 38.70705 32178 ft 438 kts 204°
2026-04-16 14:34 61.90036 38.66333 32168 ft 440 kts 208°
2026-04-16 14:34 61.84125 38.62694 32193 ft 446 kts 206°
2026-04-16 14:35 61.78104 38.59270 32196 ft 449 kts 204°
2026-04-16 14:35 61.72026 38.56111 32196 ft 450 kts 203°
2026-04-16 14:36 61.65934 38.53027 32195 ft 450 kts 203°
2026-04-16 14:36 61.59851 38.49971 32194 ft 449 kts 203°
2026-04-16 14:37 61.53779 38.46871 32198 ft 449 kts 197°
2026-04-16 14:37 61.47789 38.43331 32190 ft 446 kts 199°
2026-04-16 14:38 61.41858 38.39625 32188 ft 444 kts 199°
2026-04-16 14:38 61.35947 38.35895 32188 ft 444 kts 199°
2026-04-16 14:39 61.30041 38.32169 32187 ft 443 kts 199°
2026-04-16 14:39 61.24016 38.29886 32187 ft 447 kts 186°
2026-04-16 14:40 61.17747 38.29662 32190 ft 447 kts 184°
2026-04-16 14:40 61.11550 38.29282 32185 ft 445 kts 185°
2026-04-16 14:41 61.05402 38.28750 32184 ft 444 kts 185°
2026-04-16 14:41 60.99186 38.28179 32184 ft 444 kts 186°
2026-04-16 14:42 60.93014 38.27607 32185 ft 444 kts 186°
2026-04-16 14:42 60.86840 38.27275 32173 ft 445 kts 177°
2026-04-16 14:43 60.80771 38.29711 32199 ft 448 kts 172°
2026-04-16 14:43 60.74673 38.32201 32188 ft 447 kts 170°
2026-04-16 14:44 60.68585 38.34469 32146 ft 441 kts 181°
2026-04-16 14:44 60.62499 38.33424 32185 ft 439 kts 191°
2026-04-16 14:45 60.56460 38.31312 32192 ft 441 kts 193°
2026-04-16 14:45 60.50409 38.28971 32194 ft 443 kts 193°
2026-04-16 14:46 60.44350 38.26578 32196 ft 444 kts 193°
2026-04-16 14:46 60.38276 38.24167 32197 ft 445 kts 193°
2026-04-16 14:47 60.32197 38.21749 32197 ft 445 kts 193°
2026-04-16 14:47 60.26114 38.19327 32197 ft 446 kts 193°
2026-04-16 14:48 60.20029 38.16904 32197 ft 446 kts 193°
2026-04-16 14:48 60.13936 38.14477 32196 ft 446 kts 193°
2026-04-16 14:49 60.07842 38.12077 32193 ft 447 kts 192°
2026-04-16 14:49 60.01695 38.10167 32195 ft 447 kts 190°
2026-04-16 14:50 59.95524 38.08515 32194 ft 447 kts 189°
2026-04-16 14:50 59.89350 38.06921 32193 ft 447 kts 189°
2026-04-16 14:51 59.83181 38.05371 32190 ft 447 kts 188°
2026-04-16 14:51 59.76980 38.04318 32189 ft 448 kts 186°
2026-04-16 14:53 59.53160 38.01609 32158 ft 447 kts 183°
2026-04-16 14:54 59.46947 38.00951 32149 ft 447 kts 183°
2026-04-16 14:54 59.40729 38.00284 32142 ft 447 kts 183°
2026-04-16 14:55 59.34513 37.99612 32138 ft 447 kts 183°
2026-04-16 14:55 59.28296 37.98937 32136 ft 448 kts 183°
2026-04-16 14:56 59.22077 37.98260 32136 ft 448 kts 183°
2026-04-16 14:56 59.15855 37.97584 32139 ft 448 kts 183°
2026-04-16 14:57 59.09633 37.96911 32143 ft 448 kts 183°
2026-04-16 14:57 59.03414 37.96238 32149 ft 448 kts 182°
2026-04-16 14:58 58.94130 37.95206 32160 ft 448 kts 183°
2026-04-16 14:59 58.87913 37.94507 32164 ft 447 kts 183°
2026-04-16 14:59 58.81698 37.93806 32167 ft 447 kts 183°
2026-04-16 15:00 58.75482 37.93104 32170 ft 447 kts 183°
2026-04-16 15:00 58.69266 37.92402 32172 ft 447 kts 183°
2026-04-16 15:01 58.63054 37.91699 32170 ft 447 kts 182°
2026-04-16 15:01 58.56851 37.90971 32171 ft 446 kts 183°
2026-04-16 15:02 58.50662 37.90220 32175 ft 445 kts 182°
2026-04-16 15:02 58.44496 37.89426 32171 ft 443 kts 183°
2026-04-16 15:03 58.38345 37.88621 32172 ft 442 kts 183°
2026-04-16 15:03 58.32212 37.87826 32172 ft 442 kts 183°
2026-04-16 15:04 58.26079 37.87034 32172 ft 441 kts 183°
2026-04-16 15:04 58.19950 37.86244 32172 ft 441 kts 183°
2026-04-16 15:05 58.13821 37.85456 32172 ft 441 kts 183°
2026-04-16 15:05 58.07694 37.84670 32173 ft 441 kts 183°
2026-04-16 15:06 58.01564 37.83887 32173 ft 441 kts 183°
2026-04-16 15:06 57.95438 37.83105 32173 ft 441 kts 183°
2026-04-16 15:07 57.89309 37.82325 32173 ft 441 kts 183°
2026-04-16 15:07 57.83181 37.81544 32172 ft 441 kts 183°
2026-04-16 15:08 57.77053 37.80763 32172 ft 441 kts 183°
2026-04-16 15:08 57.70927 37.79981 32171 ft 441 kts 183°
2026-04-16 15:09 57.64804 37.79193 32167 ft 441 kts 183°
2026-04-16 15:09 57.58690 37.78385 32150 ft 441 kts 183°
2026-04-16 15:09 57.55601 37.77974 31558 ft 447 kts 183°
2026-04-16 15:10 57.52506 37.77560 31080 ft 444 kts 183°
2026-04-16 15:10 57.49441 37.77144 30614 ft 440 kts 183°
2026-04-16 15:10 57.46403 37.76727 30153 ft 436 kts 183°
2026-04-16 15:10 57.43435 37.76314 29694 ft 431 kts 183°
2026-04-16 15:11 57.40456 37.75893 29220 ft 427 kts 183°
2026-04-16 15:11 57.37507 37.75473 28739 ft 424 kts 183°
2026-04-16 15:11 57.34580 37.75053 28252 ft 420 kts 183°
2026-04-16 15:11 57.31676 37.74635 27759 ft 417 kts 183°
2026-04-16 15:12 57.28800 37.74218 27264 ft 413 kts 183°
2026-04-16 15:12 57.25944 37.73801 26766 ft 410 kts 183°
2026-04-16 15:12 57.23116 37.73388 26267 ft 406 kts 183°
2026-04-16 15:12 57.20311 37.72977 25763 ft 403 kts 183°
2026-04-16 15:13 57.17529 37.72566 25256 ft 400 kts 183°
2026-04-16 15:13 57.14769 37.72153 24746 ft 396 kts 183°
2026-04-16 15:13 57.12031 37.71735 24233 ft 393 kts 183°
2026-04-16 15:13 57.09334 37.70939 23663 ft 393 kts 191°
2026-04-16 15:14 57.06713 37.69557 23105 ft 391 kts 195°
2026-04-16 15:14 57.04166 37.67891 22577 ft 388 kts 198°
2026-04-16 15:14 57.01667 37.66085 22051 ft 384 kts 199°
2026-04-16 15:14 56.99201 37.64224 21523 ft 381 kts 199°
2026-04-16 15:15 56.96764 37.62352 20994 ft 379 kts 200°
2026-04-16 15:15 56.94347 37.60478 20463 ft 376 kts 200°
2026-04-16 15:15 56.91949 37.58607 19930 ft 373 kts 200°
2026-04-16 15:15 56.89602 37.56763 19888 ft 359 kts 200°
2026-04-16 15:16 56.87317 37.54959 19991 ft 359 kts 200°
2026-04-16 15:16 56.85013 37.53139 20011 ft 362 kts 200°
2026-04-16 15:16 56.82696 37.51312 20012 ft 363 kts 200°
2026-04-16 15:16 56.80374 37.49480 20012 ft 364 kts 199°
2026-04-16 15:17 56.78054 37.47639 20006 ft 364 kts 200°
2026-04-16 15:17 56.75735 37.45785 20004 ft 363 kts 200°
2026-04-16 15:17 56.73430 37.43935 20003 ft 362 kts 200°
2026-04-16 15:17 56.71124 37.42081 20003 ft 362 kts 200°
2026-04-16 15:18 56.68822 37.40230 20003 ft 362 kts 200°
2026-04-16 15:18 56.66554 37.38406 20002 ft 361 kts 200°
2026-04-16 15:18 56.64254 37.36556 20002 ft 361 kts 200°
2026-04-16 15:18 56.61960 37.34709 20002 ft 361 kts 200°
2026-04-16 15:19 56.59666 37.32862 20002 ft 361 kts 200°
2026-04-16 15:19 56.57374 37.31016 20002 ft 360 kts 200°
2026-04-16 15:19 56.55085 37.29170 20001 ft 360 kts 200°
2026-04-16 15:19 56.52797 37.27324 20001 ft 360 kts 200°
2026-04-16 15:20 56.50508 37.25476 20001 ft 360 kts 200°
2026-04-16 15:20 56.48216 37.23695 20000 ft 358 kts 198°
2026-04-16 15:20 56.45870 37.22150 19802 ft 360 kts 195°
2026-04-16 15:20 56.43488 37.20746 19389 ft 360 kts 194°
2026-04-16 15:21 56.41120 37.19315 18967 ft 358 kts 195°
2026-04-16 15:21 56.38777 37.17831 18540 ft 355 kts 195°
2026-04-16 15:21 56.36458 37.16332 18103 ft 353 kts 196°
2026-04-16 15:21 56.34158 37.14834 17657 ft 351 kts 196°
2026-04-16 15:22 56.31873 37.13345 17204 ft 349 kts 196°
2026-04-16 15:22 56.29593 37.11861 16747 ft 347 kts 196°
2026-04-16 15:22 56.27332 37.10398 16299 ft 344 kts 196°
2026-04-16 15:22 56.25098 37.08951 16120 ft 335 kts 196°
2026-04-16 15:23 56.22924 37.07553 16207 ft 332 kts 195°
2026-04-16 15:23 56.20733 37.06164 16220 ft 335 kts 195°
2026-04-16 15:23 56.18532 37.04766 16222 ft 337 kts 196°
2026-04-16 15:23 56.16322 37.03362 16222 ft 337 kts 195°
2026-04-16 15:24 56.14087 37.02112 16224 ft 336 kts 192°
2026-04-16 15:24 56.11835 37.00989 16223 ft 336 kts 192°
2026-04-16 15:24 56.09574 36.99840 16222 ft 337 kts 192°
2026-04-16 15:24 56.07357 36.98677 16221 ft 337 kts 193°
2026-04-16 15:25 56.05105 36.97506 16222 ft 337 kts 192°
2026-04-16 15:25 56.02829 36.96308 16221 ft 337 kts 193°
2026-04-16 15:25 56.00578 36.95124 16222 ft 337 kts 193°
2026-04-16 15:25 55.98329 36.93930 16221 ft 337 kts 193°
2026-04-16 15:26 55.96080 36.92738 16222 ft 337 kts 193°
2026-04-16 15:26 55.93816 36.91750 16222 ft 330 kts 186°
2026-04-16 15:26 55.91631 36.91331 16220 ft 302 kts 180°
2026-04-16 15:26 55.89611 36.91201 16217 ft 278 kts 178°
2026-04-16 15:27 55.87761 36.91379 16215 ft 257 kts 170°
2026-04-16 15:27 55.86035 36.91854 16173 ft 245 kts 168°
2026-04-16 15:27 55.84323 36.92334 15646 ft 254 kts 169°
2026-04-16 15:27 55.82583 36.92780 15031 ft 258 kts 170°
2026-04-16 15:28 55.80828 36.93223 14771 ft 251 kts 170°
2026-04-16 15:28 55.79100 36.93666 14694 ft 252 kts 170°
2026-04-16 15:28 55.77352 36.94122 14639 ft 256 kts 170°
2026-04-16 15:28 55.75569 36.94591 14784 ft 259 kts 170°
2026-04-16 15:29 55.73795 36.95056 15044 ft 258 kts 169°
2026-04-16 15:29 55.72004 36.95522 15100 ft 263 kts 170°
2026-04-16 15:29 55.70183 36.95994 14995 ft 266 kts 170°
2026-04-16 15:29 55.68349 36.96472 14776 ft 267 kts 170°
2026-04-16 15:30 55.66515 36.96956 14556 ft 265 kts 170°
2026-04-16 15:30 55.64704 36.97440 14327 ft 262 kts 170°
2026-04-16 15:30 55.62900 36.97927 14042 ft 262 kts 170°
2026-04-16 15:30 55.61101 36.98418 13695 ft 261 kts 170°
2026-04-16 15:31 55.59309 36.98913 13344 ft 260 kts 170°
2026-04-16 15:31 55.57518 36.99277 12977 ft 259 kts 174°
2026-04-16 15:31 55.55724 36.99412 12605 ft 257 kts 177°
2026-04-16 15:31 55.53942 36.99491 12242 ft 255 kts 177°
2026-04-16 15:32 55.52169 36.99577 11874 ft 254 kts 177°
2026-04-16 15:32 55.50407 36.99679 11504 ft 253 kts 177°
2026-04-16 15:32 55.48656 36.99795 11137 ft 251 kts 177°
2026-04-16 15:32 55.46912 36.99927 10770 ft 250 kts 177°
2026-04-16 15:33 55.45177 37.00069 10405 ft 249 kts 177°
2026-04-16 15:33 55.43458 37.00218 10042 ft 248 kts 177°
2026-04-16 15:33 55.41727 37.00275 9667 ft 247 kts 181°
2026-04-16 15:33 55.40010 37.00052 9286 ft 247 kts 185°
2026-04-16 15:34 55.38304 36.99702 8925 ft 246 kts 186°
2026-04-16 15:34 55.36628 36.99343 8817 ft 235 kts 186°
2026-04-16 15:34 55.35024 36.99007 8832 ft 231 kts 186°
2026-04-16 15:34 55.33420 36.98675 8839 ft 234 kts 186°
2026-04-16 15:35 55.31792 36.98340 8841 ft 237 kts 186°
2026-04-16 15:35 55.30143 36.98002 8841 ft 240 kts 186°
2026-04-16 15:35 55.28478 36.97662 8840 ft 241 kts 186°
2026-04-16 15:35 55.26804 36.97515 8840 ft 242 kts 179°
2026-04-16 15:36 55.25119 36.97682 8840 ft 242 kts 175°
2026-04-16 15:36 55.23440 36.97964 8840 ft 243 kts 174°
2026-04-16 15:36 55.23130 36.98018 8840 ft 243 kts 174°
2026-04-16 15:36 55.21450 36.98301 8839 ft 242 kts 175°
2026-04-16 15:37 55.19771 36.98575 8839 ft 243 kts 175°
2026-04-16 15:37 55.18089 36.98850 8839 ft 243 kts 174°
2026-04-16 15:37 55.16469 36.99644 8834 ft 244 kts 154°
2026-04-16 15:37 55.15146 37.01512 8837 ft 249 kts 132°
2026-04-16 15:38 55.14325 37.04199 8847 ft 254 kts 114°
2026-04-16 15:38 55.13964 37.06153 8844 ft 256 kts 110°
2026-04-16 15:38 55.13475 37.09151 8841 ft 256 kts 110°
2026-04-16 15:38 55.13184 37.12235 8835 ft 261 kts 94°
2026-04-16 15:39 55.13524 37.15369 8809 ft 268 kts 75°
2026-04-16 15:39 55.14292 37.18395 8611 ft 275 kts 66°
2026-04-16 15:39 55.15262 37.21285 8363 ft 276 kts 61°
2026-04-16 15:39 55.16284 37.24065 8115 ft 267 kts 60°
2026-04-16 15:40 55.17280 37.26759 7783 ft 262 kts 60°
2026-04-16 15:40 55.18263 37.29445 7373 ft 262 kts 60°
2026-04-16 15:40 55.19237 37.32126 6960 ft 261 kts 60°
2026-04-16 15:40 55.20200 37.34787 6670 ft 255 kts 60°
2026-04-16 15:41 55.21333 37.37135 6332 ft 256 kts 42°
2026-04-16 15:41 55.22942 37.38585 5715 ft 267 kts 16°
2026-04-16 15:41 55.24731 37.38716 5827 ft 242 kts 355°
2026-04-16 15:41 55.26347 37.38437 5855 ft 227 kts 354°
2026-04-16 15:42 55.27864 37.38162 5872 ft 213 kts 354°
2026-04-16 15:42 55.29300 37.37914 5877 ft 208 kts 354°
2026-04-16 15:42 55.30885 37.37641 5902 ft 237 kts 354°
2026-04-16 15:42 55.32525 37.37422 5884 ft 236 kts
2026-04-16 15:43 55.34133 37.37897 5884 ft 234 kts 20°
2026-04-16 15:43 55.35615 37.39087 5892 ft 234 kts 28°
2026-04-16 15:43 55.37072 37.40363 5907 ft 232 kts 28°
2026-04-16 15:43 55.38506 37.41622 5892 ft 230 kts 29°
2026-04-16 15:44 55.39942 37.42884 5889 ft 231 kts 29°
2026-04-16 15:44 55.41392 37.44120 5885 ft 234 kts 25°
2026-04-16 15:44 55.42981 37.44784 5899 ft 236 kts
2026-04-16 15:44 55.44636 37.45188 5653 ft 245 kts
2026-04-16 15:45 55.46337 37.45589 5259 ft 246 kts
2026-04-16 15:45 55.48020 37.45976 4909 ft 241 kts
2026-04-16 15:45 55.49640 37.46354 4630 ft 236 kts
2026-04-16 15:45 55.51279 37.46737 4327 ft 233 kts
2026-04-16 15:46 55.52857 37.47107 4036 ft 231 kts
2026-04-16 15:46 55.54405 37.47470 4078 ft 220 kts
2026-04-16 15:46 55.55924 37.47824 4095 ft 222 kts
2026-04-16 15:46 55.57461 37.48184 4099 ft 224 kts
2026-04-16 15:47 55.59016 37.48365 4094 ft 221 kts 358°
2026-04-16 15:47 55.60468 37.47830 4033 ft 211 kts 340°
2026-04-16 15:47 55.61808 37.46754 3822 ft 212 kts 330°
2026-04-16 15:47 55.63089 37.45436 3595 ft 214 kts 328°
2026-04-16 15:48 55.64365 37.44084 3478 ft 214 kts 327°
2026-04-16 15:48 55.65641 37.42710 3286 ft 215 kts 327°
2026-04-16 15:48 55.66915 37.41321 3075 ft 215 kts 327°
2026-04-16 15:48 55.68190 37.39928 2954 ft 215 kts 326°
2026-04-16 15:49 55.69421 37.38557 2896 ft 200 kts 326°
2026-04-16 15:49 55.70633 37.37430 2772 ft 200 kts 334°
2026-04-16 15:49 55.71949 37.36440 2725 ft 208 kts 336°
2026-04-16 15:49 55.73295 37.35469 2723 ft 210 kts 340°
2026-04-16 15:50 55.74731 37.35088 2654 ft 210 kts 360°
2026-04-16 15:50 55.76194 37.35252 2505 ft 210 kts
2026-04-16 15:50 55.77635 37.35381 2387 ft 207 kts 355°
2026-04-16 15:50 55.78938 37.34266 2333 ft 213 kts 314°
2026-04-16 15:51 55.79503 37.31988 2265 ft 200 kts 271°
2026-04-16 15:51 55.79065 37.29801 2213 ft 186 kts 226°
2026-04-16 15:51 55.77946 37.28879 2129 ft 180 kts 182°
2026-04-16 15:51 55.76846 37.29686 2144 ft 175 kts 137°
2026-04-16 15:52 55.76311 37.31616 1998 ft 174 kts 111°
2026-04-16 15:52 55.75843 37.33538 1928 ft 164 kts 122°
2026-04-16 15:52 55.75060 37.34955 1879 ft 162 kts 147°
2026-04-16 15:52 55.74033 37.35775 1871 ft 166 kts 159°
2026-04-16 15:53 55.72872 37.36070 1881 ft 172 kts 182°
2026-04-16 15:53 55.71687 37.35752 1896 ft 174 kts 191°
2026-04-16 15:53 55.70549 37.35081 1920 ft 167 kts 201°
2026-04-16 15:53 55.69524 37.34151 1846 ft 167 kts 205°
2026-04-16 15:54 55.68481 37.33291 1854 ft 164 kts 202°
2026-04-16 15:54 55.67443 37.32492 1826 ft 164 kts 201°
2026-04-16 15:54 55.66382 37.31690 1784 ft 165 kts 201°
2026-04-16 15:54 55.65315 37.30870 1602 ft 167 kts 201°
2026-04-16 15:55 55.64354 37.30115 1413 ft 166 kts 202°
2026-04-16 15:55 55.63510 37.29472 1250 ft 164 kts 201°
2026-04-16 15:55 55.62480 37.28698 1010 ft 158 kts 201°
2026-04-16 15:55 55.61522 37.27959 810 ft 141 kts 201°
2026-04-16 15:56 55.60675 37.27318 698 ft 121 kts 201°
2026-04-16 15:56 55.60020 37.26813 696 ft 78 kts 204°
2026-04-16 15:56 55.59651 37.26530 696 ft 38 kts 205°
2026-04-16 15:56 55.59504 37.26441 696 ft 8 kts 156°
2026-04-16 15:57 55.59472 37.26523 696 ft 9 kts 89°
2026-04-16 15:57 55.59495 37.26630 696 ft 10 kts 67°
2026-04-16 15:57 55.59524 37.26753 696 ft 12 kts 67°
2026-04-16 15:57 55.59539 37.26872 696 ft 10 kts 110°
2026-04-16 15:58 55.59523 37.26992 696 ft 11 kts 69°
2026-04-16 15:58 55.59559 37.27128 696 ft 14 kts 68°
2026-04-16 15:58 55.59599 37.27303 696 ft 16 kts 68°
2026-04-16 15:58 55.59643 37.27496 696 ft 18 kts 68°
2026-04-16 15:59 55.59730 37.27892 696 ft 18 kts 69°
2026-04-16 15:59 55.59770 37.28062 696 ft 13 kts 68°
2026-04-16 15:59 55.59807 37.28224 696 ft 15 kts 68°
2026-04-16 16:00 55.59848 37.28404 696 ft 17 kts 69°
2026-04-16 16:00 55.59891 37.28603 696 ft 18 kts 69°
2026-04-16 16:00 55.59931 37.28792 696 ft 14 kts 68°
2026-04-16 16:00 55.59926 37.28949 696 ft 13 kts 149°
2026-04-16 16:01 55.59836 37.28988 696 ft 14 kts 169°
2026-04-16 16:01 55.59756 37.29034 696 ft 10 kts 153°
2026-04-16 16:01 55.59688 37.29090 696 ft 11 kts 158°
2026-04-16 16:01 55.59609 37.29144 696 ft 13 kts 166°
2026-04-16 16:02 55.59567 37.29097 696 ft 8 kts 241°
2026-04-16 16:02 55.59543 37.28994 696 ft 9 kts 243°
2026-04-16 16:02 55.59515 37.28977 696 ft 5 kts 158°
2026-04-16 16:02 55.59475 37.29005 696 ft 6 kts 158°
2026-04-16 16:03 55.59450 37.29023 696 ft 0 kts 158°
2026-04-16 16:09 55.67420 37.32474 1826 ft 164 kts 201°
2026-04-16 16:09 55.67171 37.32288 1821 ft 164 kts 201°
2026-04-16 16:09 55.66116 37.31485 1750 ft 167 kts 202°